Year,Month,Day,Hour,Minute,Value (Times are PST for temperature in C)
2011,10,15,00,00,3.70
2011,10,15,00,01,3.70
2011,10,15,00,02,3.70
2011,10,15,00,03,3.70
2011,10,15,00,04,3.70
2011,10,15,00,05,3.60
2011,10,15,00,06,3.60
2011,10,15,00,07,3.60
2011,10,15,00,08,3.60
2011,10,15,00,09,3.60
2011,10,15,00,10,3.60
2011,10,15,00,11,3.60
2011,10,15,00,12,3.60
2011,10,15,00,13,3.60
2011,10,15,00,14,3.60
2011,10,15,00,15,3.60
2011,10,15,00,16,3.60
2011,10,15,00,17,3.60
2011,10,15,00,18,3.60
2011,10,15,00,19,3.60
2011,10,15,00,20,3.60
2011,10,15,00,21,3.60
2011,10,15,00,22,3.60
2011,10,15,00,23,3.60
2011,10,15,00,24,3.60
2011,10,15,00,25,3.60
2011,10,15,00,26,3.60
2011,10,15,00,27,3.60
2011,10,15,00,28,3.60
2011,10,15,00,29,3.60
2011,10,15,00,30,3.60
2011,10,15,00,31,3.60
2011,10,15,00,32,3.60
2011,10,15,00,33,3.60
2011,10,15,00,34,3.60
2011,10,15,00,35,3.60
2011,10,15,00,36,3.60
2011,10,15,00,37,3.60
2011,10,15,00,38,3.60
2011,10,15,00,39,3.70
2011,10,15,00,40,3.70
2011,10,15,00,41,3.70
2011,10,15,00,42,3.70
2011,10,15,00,43,3.70
2011,10,15,00,44,3.70
2011,10,15,00,45,3.70
2011,10,15,00,46,3.70
2011,10,15,00,47,3.70
2011,10,15,00,48,3.70
2011,10,15,00,49,3.70
2011,10,15,00,50,3.70
2011,10,15,00,51,3.70
2011,10,15,00,52,3.70
2011,10,15,00,53,3.70
2011,10,15,00,54,3.70
2011,10,15,00,55,3.70
2011,10,15,00,56,3.70
2011,10,15,00,57,3.70
2011,10,15,00,58,3.70
2011,10,15,00,59,3.70
2011,10,15,01,00,3.70
2011,10,15,01,01,3.70
2011,10,15,01,02,3.70
2011,10,15,01,03,3.70
2011,10,15,01,04,3.70
2011,10,15,01,05,3.70
2011,10,15,01,06,3.70
2011,10,15,01,07,3.70
2011,10,15,01,08,3.70
2011,10,15,01,09,3.70
2011,10,15,01,10,3.70
2011,10,15,01,11,3.70
2011,10,15,01,12,3.70
2011,10,15,01,13,3.70
2011,10,15,01,14,3.80
2011,10,15,01,15,3.80
2011,10,15,01,16,3.80
2011,10,15,01,17,3.80
2011,10,15,01,18,3.80
2011,10,15,01,19,3.80
2011,10,15,01,20,3.80
2011,10,15,01,21,3.80
2011,10,15,01,22,3.80
2011,10,15,01,23,3.80
2011,10,15,01,24,3.80
2011,10,15,01,25,3.80
2011,10,15,01,26,3.80
2011,10,15,01,27,3.80
2011,10,15,01,28,3.80
2011,10,15,01,29,3.80
2011,10,15,01,30,3.80
2011,10,15,01,31,3.80
2011,10,15,01,32,3.90
2011,10,15,01,33,3.90
2011,10,15,01,34,3.90
2011,10,15,01,35,3.90
2011,10,15,01,36,3.90
2011,10,15,01,37,3.90
2011,10,15,01,38,3.90
2011,10,15,01,39,3.90
2011,10,15,01,40,3.90
2011,10,15,01,41,3.90
2011,10,15,01,42,3.90
2011,10,15,01,43,3.90
2011,10,15,01,44,3.90
2011,10,15,01,45,3.90
2011,10,15,01,46,3.90
2011,10,15,01,47,3.90
2011,10,15,01,48,3.90
2011,10,15,01,49,3.90
2011,10,15,01,50,3.90
2011,10,15,01,51,3.90
2011,10,15,01,52,3.90
2011,10,15,01,53,3.90
2011,10,15,01,54,3.90
2011,10,15,01,55,3.90
2011,10,15,01,56,3.90
2011,10,15,01,57,3.90
2011,10,15,01,58,3.90
2011,10,15,01,59,4.00
2011,10,15,02,00,4.10
2011,10,15,02,01,4.10
2011,10,15,02,02,4.10
2011,10,15,02,03,4.10
2011,10,15,02,04,4.30
2011,10,15,02,05,4.30
2011,10,15,02,06,4.30
2011,10,15,02,07,4.40
2011,10,15,02,08,4.50
2011,10,15,02,09,4.50
2011,10,15,02,10,4.60
2011,10,15,02,11,4.60
2011,10,15,02,12,4.60
2011,10,15,02,13,4.60
2011,10,15,02,14,4.60
2011,10,15,02,15,4.60
2011,10,15,02,16,4.60
2011,10,15,02,17,4.70
2011,10,15,02,18,4.70
2011,10,15,02,19,4.70
2011,10,15,02,20,4.80
2011,10,15,02,21,4.80
2011,10,15,02,22,4.80
2011,10,15,02,23,4.90
2011,10,15,02,24,4.80
2011,10,15,02,25,4.80
2011,10,15,02,26,4.80
2011,10,15,02,27,4.80
2011,10,15,02,28,4.80
2011,10,15,02,29,4.80
2011,10,15,02,30,4.80
2011,10,15,02,31,4.80
2011,10,15,02,32,4.80
2011,10,15,02,33,4.70
2011,10,15,02,34,4.70
2011,10,15,02,35,4.70
2011,10,15,02,36,4.70
2011,10,15,02,37,4.70
2011,10,15,02,38,4.90
2011,10,15,02,39,5.00
2011,10,15,02,40,5.10
2011,10,15,02,41,5.10
2011,10,15,02,42,5.10
2011,10,15,02,43,5.10
2011,10,15,02,44,5.10
2011,10,15,02,45,5.10
2011,10,15,02,46,5.00
2011,10,15,02,47,5.00
2011,10,15,02,48,5.00
2011,10,15,02,49,4.90
2011,10,15,02,50,4.90
2011,10,15,02,51,4.90
2011,10,15,02,52,4.90
2011,10,15,02,53,4.90
2011,10,15,02,54,4.90
2011,10,15,02,55,4.90
2011,10,15,02,56,4.90
2011,10,15,02,57,4.90
2011,10,15,02,58,4.90
2011,10,15,02,59,4.90
2011,10,15,03,00,4.90
2011,10,15,03,01,5.00
2011,10,15,03,02,5.00
2011,10,15,03,03,5.00
2011,10,15,03,04,4.90
2011,10,15,03,05,4.90
2011,10,15,03,06,4.90
2011,10,15,03,07,4.90
2011,10,15,03,08,4.90
2011,10,15,03,09,5.00
2011,10,15,03,10,5.00
2011,10,15,03,11,5.10
2011,10,15,03,12,5.10
2011,10,15,03,13,5.10
2011,10,15,03,14,5.10
2011,10,15,03,15,5.10
2011,10,15,03,16,5.10
2011,10,15,03,17,5.10
2011,10,15,03,18,5.10
2011,10,15,03,19,5.10
2011,10,15,03,20,5.10
2011,10,15,03,21,5.10
2011,10,15,03,22,5.10
2011,10,15,03,23,5.10
2011,10,15,03,24,5.10
2011,10,15,03,25,5.10
2011,10,15,03,26,5.00
2011,10,15,03,27,5.00
2011,10,15,03,28,5.00
2011,10,15,03,29,5.00
2011,10,15,03,30,5.00
2011,10,15,03,34,4.90
2011,10,15,03,35,4.90
2011,10,15,03,36,4.90
2011,10,15,03,37,4.90
2011,10,15,03,38,4.90
2011,10,15,03,39,4.90
2011,10,15,03,40,5.00
2011,10,15,03,41,5.00
2011,10,15,03,42,5.00
2011,10,15,03,43,5.00
2011,10,15,03,44,5.00
2011,10,15,03,45,5.00
2011,10,15,03,46,5.00
2011,10,15,03,47,5.00
2011,10,15,03,48,5.00
2011,10,15,03,49,5.10
2011,10,15,03,50,5.00
2011,10,15,03,51,5.10
2011,10,15,03,52,5.10
2011,10,15,03,53,5.10
2011,10,15,03,54,5.10
2011,10,15,03,55,5.10
2011,10,15,03,56,5.10
2011,10,15,03,57,5.10
2011,10,15,03,58,5.10
2011,10,15,03,59,5.10
2011,10,15,04,00,5.10
2011,10,15,04,01,5.10
2011,10,15,04,02,5.10
2011,10,15,04,03,5.10
2011,10,15,04,04,5.10
2011,10,15,04,05,5.10
2011,10,15,04,06,5.00
2011,10,15,04,07,5.00
2011,10,15,04,08,5.00
2011,10,15,04,09,4.90
2011,10,15,04,10,4.90
2011,10,15,04,11,4.90
2011,10,15,04,12,4.90
2011,10,15,04,13,4.80
2011,10,15,04,14,4.80
2011,10,15,04,15,4.80
2011,10,15,04,16,4.80
2011,10,15,04,17,4.80
2011,10,15,04,18,4.70
2011,10,15,04,19,4.70
2011,10,15,04,20,4.70
2011,10,15,04,21,4.70
2011,10,15,04,22,4.70
2011,10,15,04,23,4.70
2011,10,15,04,24,4.70
2011,10,15,04,25,4.60
2011,10,15,04,26,4.60
2011,10,15,04,27,4.60
2011,10,15,04,28,4.60
2011,10,15,04,29,4.60
2011,10,15,04,30,4.60
2011,10,15,04,31,4.60
2011,10,15,04,32,4.60
2011,10,15,04,33,4.60
2011,10,15,04,34,4.60
2011,10,15,04,35,4.60
2011,10,15,04,36,4.60
2011,10,15,04,37,4.60
2011,10,15,04,38,4.60
2011,10,15,04,39,4.60
2011,10,15,04,40,4.60
2011,10,15,08,37,4.20
2011,10,15,08,38,4.20
2011,10,15,08,39,4.20
2011,10,15,08,40,4.20
2011,10,15,08,41,4.20
2011,10,15,08,42,4.20
2011,10,15,08,43,4.20
2011,10,15,08,44,4.20
2011,10,15,08,45,4.20
2011,10,15,08,46,4.30
2011,10,15,08,47,4.30
2011,10,15,08,48,4.30
2011,10,15,08,49,4.30
2011,10,15,08,50,4.30
2011,10,15,08,51,4.30
2011,10,15,08,52,4.30
2011,10,15,08,53,4.30
2011,10,15,08,54,4.30
2011,10,15,08,55,4.40
2011,10,15,08,56,4.40
2011,10,15,08,57,4.40
2011,10,15,08,58,4.40
2011,10,15,08,59,4.50
2011,10,15,09,00,4.50
2011,10,15,09,01,4.60
2011,10,15,09,02,4.60
2011,10,15,09,03,4.70
2011,10,15,09,04,4.70
2011,10,15,09,05,4.70
2011,10,15,09,06,4.80
2011,10,15,09,07,4.80
2011,10,15,09,08,4.90
2011,10,15,09,09,4.90
2011,10,15,09,10,5.00
2011,10,15,09,11,5.10
2011,10,15,09,12,5.10
2011,10,15,09,13,5.10
2011,10,15,09,14,5.20
2011,10,15,09,15,5.20
2011,10,15,09,16,5.20
2011,10,15,09,17,5.30
2011,10,15,09,18,5.30
2011,10,15,09,19,5.40
2011,10,15,09,20,5.40
2011,10,15,09,21,5.50
2011,10,15,09,22,5.50
2011,10,15,09,23,5.60
2011,10,15,09,24,5.60
2011,10,15,09,25,5.70
2011,10,15,09,26,5.70
2011,10,15,09,27,5.80
2011,10,15,09,28,5.80
2011,10,15,09,29,5.80
2011,10,15,09,30,5.90
2011,10,15,09,31,6.00
2011,10,15,09,32,6.00
2011,10,15,09,33,6.10
2011,10,15,09,34,6.10
2011,10,15,09,35,6.20
2011,10,15,09,36,6.20
2011,10,15,09,37,6.20
2011,10,15,09,38,6.20
2011,10,15,09,39,6.30
2011,10,15,09,40,6.30
2011,10,15,09,41,6.30
2011,10,15,09,42,6.30
2011,10,15,09,43,6.40
2011,10,15,09,44,6.40
2011,10,15,09,45,6.50
2011,10,15,09,46,6.50
2011,10,15,09,47,6.60
2011,10,15,09,48,6.60
2011,10,15,09,49,6.70
2011,10,15,09,50,6.70
2011,10,15,09,51,6.80
2011,10,15,09,52,6.80
2011,10,15,09,53,6.80
2011,10,15,09,54,6.80
2011,10,15,09,55,6.80
2011,10,15,09,56,6.80
2011,10,15,09,57,6.90
2011,10,15,09,58,6.90
2011,10,15,09,59,6.90
2011,10,15,10,00,6.90
2011,10,15,10,01,6.90
2011,10,15,10,02,6.90
2011,10,15,10,03,7.00
2011,10,15,10,04,7.00
2011,10,15,10,05,7.00
2011,10,15,10,06,7.00
2011,10,15,10,07,7.00
2011,10,15,10,08,7.10
2011,10,15,10,09,7.10
2011,10,15,10,10,7.10
2011,10,15,10,11,7.10
2011,10,15,10,12,7.10
2011,10,15,10,13,7.10
2011,10,15,10,14,7.10
2011,10,15,10,15,7.10
2011,10,15,10,16,7.20
2011,10,15,10,17,7.20
2011,10,15,10,18,7.20
2011,10,15,10,19,7.20
2011,10,15,10,20,7.20
2011,10,15,10,21,7.30
2011,10,15,10,22,7.30
2011,10,15,10,23,7.30
2011,10,15,10,24,7.30
2011,10,15,10,25,7.40
2011,10,15,10,26,7.40
2011,10,15,10,27,7.40
2011,10,15,10,28,7.40
2011,10,15,10,29,7.50
2011,10,15,10,30,7.50
2011,10,15,10,31,7.60
2011,10,15,10,32,7.60
2011,10,15,10,33,7.70
2011,10,15,10,34,7.70
2011,10,15,10,35,7.70
2011,10,15,10,36,7.70
2011,10,15,10,37,7.80
2011,10,15,10,38,7.80
2011,10,15,10,39,7.80
2011,10,15,10,40,7.90
2011,10,15,10,41,7.90
2011,10,15,10,42,7.90
2011,10,15,10,43,7.90
2011,10,15,10,44,7.90
2011,10,15,10,45,7.90
2011,10,15,10,46,7.90
2011,10,15,10,47,7.90
2011,10,15,10,48,8.00
2011,10,15,10,49,8.00
2011,10,15,10,50,8.10
2011,10,15,10,51,8.10
2011,10,15,10,52,8.10
2011,10,15,10,53,8.10
2011,10,15,10,54,8.20
2011,10,15,10,55,8.20
2011,10,15,10,56,8.20
2011,10,15,10,57,8.20
2011,10,15,10,58,8.30
2011,10,15,10,59,8.30
2011,10,15,11,00,8.40
2011,10,15,11,01,8.40
2011,10,15,11,02,8.50
2011,10,15,11,03,8.50
2011,10,15,11,04,8.60
2011,10,15,11,05,8.60
2011,10,15,11,06,8.60
2011,10,15,11,07,8.60
2011,10,15,11,08,8.60
2011,10,15,11,09,8.70
2011,10,15,11,10,8.70
2011,10,15,11,11,8.80
2011,10,15,11,12,8.80
2011,10,15,11,13,8.80
2011,10,15,11,14,8.90
2011,10,15,11,15,8.90
2011,10,15,11,16,9.00
2011,10,15,11,17,9.00
2011,10,15,11,18,9.00
2011,10,15,11,19,9.10
2011,10,15,11,20,9.10
2011,10,15,11,21,9.10
2011,10,15,11,22,9.10
2011,10,15,11,23,9.10
2011,10,15,11,24,9.20
2011,10,15,11,25,9.20
2011,10,15,11,26,9.10
2011,10,15,11,27,9.10
2011,10,15,11,28,9.10
2011,10,15,11,29,9.20
2011,10,15,11,30,9.20
2011,10,15,11,31,9.20
2011,10,15,11,32,9.20
2011,10,15,11,33,9.20
2011,10,15,11,34,9.20
2011,10,15,11,35,9.20
2011,10,15,11,36,9.20
2011,10,15,11,37,9.20
2011,10,15,11,38,9.20
2011,10,15,11,39,9.20
2011,10,15,11,40,9.20
2011,10,15,11,41,9.20
2011,10,15,11,42,9.20
2011,10,15,11,43,9.20
2011,10,15,11,44,9.20
2011,10,15,11,45,9.10
2011,10,15,11,46,9.10
2011,10,15,11,47,9.10
2011,10,15,11,48,9.20
2011,10,15,11,49,9.20
2011,10,15,11,50,9.20
2011,10,15,11,51,9.20
2011,10,15,11,52,9.30
2011,10,15,11,53,9.30
2011,10,15,11,54,9.30
2011,10,15,11,55,9.40
2011,10,15,11,56,9.40
2011,10,15,11,57,9.40
2011,10,15,11,58,9.50
2011,10,15,11,59,9.50
2011,10,15,12,00,9.60
2011,10,15,12,01,9.60
2011,10,15,12,02,9.60
2011,10,15,12,03,9.60
2011,10,15,12,04,9.60
2011,10,15,12,05,9.70
2011,10,15,12,06,9.70
2011,10,15,12,07,9.70
2011,10,15,12,08,9.70
2011,10,15,12,09,9.70
2011,10,15,12,10,9.60
2011,10,15,12,11,9.60
2011,10,15,12,12,9.60
2011,10,15,12,13,9.60
2011,10,15,12,14,9.60
2011,10,15,12,15,9.60
2011,10,15,12,16,9.70
2011,10,15,12,17,9.70
2011,10,15,12,18,9.70
2011,10,15,12,19,9.80
2011,10,15,12,20,9.80
2011,10,15,12,21,9.80
2011,10,15,12,22,9.90
2011,10,15,12,23,9.90
2011,10,15,12,24,9.90
2011,10,15,12,25,9.90
2011,10,15,12,26,10.00
2011,10,15,12,27,10.00
2011,10,15,12,28,10.00
2011,10,15,12,29,10.00
2011,10,15,12,30,10.00
2011,10,15,12,31,10.10
2011,10,15,12,32,10.10
2011,10,15,12,33,10.10
2011,10,15,12,34,10.10
2011,10,15,12,35,10.10
2011,10,15,12,36,10.20
2011,10,15,12,37,10.10
2011,10,15,12,38,10.10
2011,10,15,12,39,10.10
2011,10,15,12,40,10.10
2011,10,15,12,41,10.20
2011,10,15,12,42,10.10
2011,10,15,12,43,10.10
2011,10,15,12,44,10.10
2011,10,15,12,45,10.10
2011,10,15,12,46,10.10
2011,10,15,12,47,10.10
2011,10,15,12,48,10.00
2011,10,15,12,49,10.10
2011,10,15,12,50,10.10
2011,10,15,12,51,10.20
2011,10,15,12,52,10.30
2011,10,15,12,53,10.30
2011,10,15,12,54,10.40
2011,10,15,12,55,10.40
2011,10,15,12,56,10.50
2011,10,15,12,57,10.60
2011,10,15,12,58,10.60
2011,10,15,12,59,10.50
2011,10,15,13,00,10.50
2011,10,15,13,01,10.50
2011,10,15,13,02,10.50
2011,10,15,13,03,10.50
2011,10,15,13,04,10.50
2011,10,15,13,05,10.60
2011,10,15,13,06,10.60
2011,10,15,13,07,10.60
2011,10,15,13,08,10.50
2011,10,15,13,09,10.40
2011,10,15,13,10,10.40
2011,10,15,13,11,10.40
2011,10,15,13,12,10.50
2011,10,15,13,13,10.50
2011,10,15,13,14,10.50
2011,10,15,13,15,10.60
2011,10,15,13,16,10.60
2011,10,15,13,17,10.60
2011,10,15,13,18,10.70
2011,10,15,13,19,10.70
2011,10,15,13,20,10.70
2011,10,15,13,21,10.70
2011,10,15,13,22,10.70
2011,10,15,13,23,10.60
2011,10,15,13,24,10.60
2011,10,15,13,25,10.60
2011,10,15,13,26,10.60
2011,10,15,13,27,10.70
2011,10,15,13,28,10.60
2011,10,15,13,29,10.60
2011,10,15,13,30,10.50
2011,10,15,13,31,10.60
2011,10,15,13,32,10.60
2011,10,15,13,33,10.60
2011,10,15,13,34,10.60
2011,10,15,13,35,10.60
2011,10,15,13,36,10.60
2011,10,15,13,37,10.60
2011,10,15,13,38,10.70
2011,10,15,13,39,10.70
2011,10,15,13,40,10.70
2011,10,15,13,41,10.80
2011,10,15,13,42,10.80
2011,10,15,13,43,10.80
2011,10,15,13,44,10.80
2011,10,15,13,45,10.90
2011,10,15,13,46,10.90
2011,10,15,13,47,10.90
2011,10,15,13,48,10.90
2011,10,15,13,49,10.90
2011,10,15,13,50,10.90
2011,10,15,13,51,10.90
2011,10,15,13,52,11.00
2011,10,15,13,53,11.00
2011,10,15,13,54,11.00
2011,10,15,13,55,11.00
2011,10,15,13,56,11.00
2011,10,15,13,57,11.00
2011,10,15,13,58,11.00
2011,10,15,13,59,11.00
2011,10,15,14,00,11.00
2011,10,15,14,01,11.00
2011,10,15,14,02,11.00
2011,10,15,14,03,11.00
2011,10,15,14,04,11.00
2011,10,15,14,05,11.00
2011,10,15,14,06,10.90
2011,10,15,14,07,11.00
2011,10,15,14,08,11.00
2011,10,15,14,09,11.10
2011,10,15,14,10,11.10
2011,10,15,14,11,11.10
2011,10,15,14,12,11.10
2011,10,15,14,13,11.10
2011,10,15,14,14,11.10
2011,10,15,14,15,11.00
2011,10,15,14,16,11.00
2011,10,15,14,17,11.00
2011,10,15,14,18,11.10
2011,10,15,14,19,11.10
2011,10,15,14,20,11.10
2011,10,15,14,21,11.10
2011,10,15,14,22,11.10
2011,10,15,14,23,11.10
2011,10,15,14,24,11.20
2011,10,15,14,25,11.20
2011,10,15,14,26,11.20
2011,10,15,14,27,11.30
2011,10,15,14,28,11.30
2011,10,15,14,29,11.40
2011,10,15,14,30,11.40
2011,10,15,14,31,11.50
2011,10,15,14,32,11.60
2011,10,15,14,33,11.60
2011,10,15,14,34,11.70
2011,10,15,14,35,11.70
2011,10,15,14,36,11.70
2011,10,15,14,37,11.70
2011,10,15,14,38,11.70
2011,10,15,14,39,11.70
2011,10,15,14,40,11.70
2011,10,15,14,41,11.80
2011,10,15,14,42,11.80
2011,10,15,14,43,11.80
2011,10,15,14,44,11.90
2011,10,15,14,45,11.90
2011,10,15,14,46,12.00
2011,10,15,14,47,12.00
2011,10,15,14,48,12.10
2011,10,15,14,49,12.10
2011,10,15,14,50,12.20
2011,10,15,14,51,12.30
2011,10,15,14,52,12.40
2011,10,15,14,53,12.50
2011,10,15,14,54,12.60
2011,10,15,14,55,12.70
2011,10,15,14,56,12.70
2011,10,15,14,57,12.80
2011,10,15,14,58,12.70
2011,10,15,14,59,12.70
2011,10,15,15,00,12.70
2011,10,15,15,01,12.70
2011,10,15,15,02,12.70
2011,10,15,15,03,12.60
2011,10,15,15,04,12.50
2011,10,15,15,05,12.50
2011,10,15,15,06,12.50
2011,10,15,15,07,12.40
2011,10,15,15,08,12.40
2011,10,15,15,09,12.40
2011,10,15,15,10,12.30
2011,10,15,15,11,12.20
2011,10,15,15,12,12.20
2011,10,15,15,13,12.20
2011,10,15,15,14,12.10
2011,10,15,15,15,12.00
2011,10,15,15,16,11.90
2011,10,15,15,17,11.90
2011,10,15,15,18,11.90
2011,10,15,15,19,11.80
2011,10,15,15,20,11.80
2011,10,15,15,21,11.70
2011,10,15,15,22,11.70
2011,10,15,15,23,11.60
2011,10,15,15,24,11.60
2011,10,15,15,25,11.50
2011,10,15,15,26,11.60
2011,10,15,15,27,11.60
2011,10,15,15,28,11.60
2011,10,15,15,29,11.60
2011,10,15,15,30,11.60
2011,10,15,15,31,11.60
2011,10,15,15,32,11.60
2011,10,15,15,33,11.60
2011,10,15,15,34,11.60
2011,10,15,15,35,11.60
2011,10,15,15,36,11.60
2011,10,15,15,37,11.60
2011,10,15,15,38,11.60
2011,10,15,15,39,11.60
2011,10,15,15,40,11.60
2011,10,15,15,41,11.60
2011,10,15,15,42,11.60
2011,10,15,15,43,11.60
2011,10,15,15,44,11.60
2011,10,15,15,45,11.60
2011,10,15,15,46,11.60
2011,10,15,15,47,11.60
2011,10,15,15,48,11.60
2011,10,15,15,49,11.60
2011,10,15,15,50,11.60
2011,10,15,15,51,11.60
2011,10,15,15,52,11.60
2011,10,15,15,53,11.60
2011,10,15,15,54,11.60
2011,10,15,15,55,11.60
2011,10,15,15,56,11.60
2011,10,15,15,57,11.60
2011,10,15,15,58,11.60
2011,10,15,15,59,11.60
2011,10,15,16,00,11.60
2011,10,15,16,01,11.60
2011,10,15,16,02,11.60
2011,10,15,16,03,11.60
2011,10,15,16,04,11.60
2011,10,15,16,05,11.60
2011,10,15,16,06,11.50
2011,10,15,16,07,11.50
2011,10,15,16,08,11.40
2011,10,15,16,09,11.40
2011,10,15,16,10,11.40
2011,10,15,16,11,11.30
2011,10,15,16,12,11.30
2011,10,15,16,13,11.30
2011,10,15,16,14,11.30
2011,10,15,16,15,11.30
2011,10,15,16,16,11.40
2011,10,15,16,17,11.40
2011,10,15,16,18,11.40
2011,10,15,16,19,11.50
2011,10,15,16,20,11.50
2011,10,15,16,21,11.60
2011,10,15,16,22,11.60
2011,10,15,16,23,11.60
2011,10,15,16,24,11.60
2011,10,15,16,25,11.60
2011,10,15,16,26,11.60
2011,10,15,16,27,11.50
2011,10,15,16,28,11.50
2011,10,15,16,29,11.40
2011,10,15,16,30,11.40
2011,10,15,16,31,11.40
2011,10,15,16,32,11.40
2011,10,15,16,33,11.30
2011,10,15,16,34,11.30
2011,10,15,16,35,11.30
2011,10,15,16,36,11.20
2011,10,15,16,37,11.20
2011,10,15,16,38,11.20
2011,10,15,16,39,11.10
2011,10,15,16,40,11.10
2011,10,15,16,41,11.00
2011,10,15,16,42,11.00
2011,10,15,16,43,10.90
2011,10,15,16,44,10.90
2011,10,15,16,45,10.90
2011,10,15,16,46,10.90
2011,10,15,16,47,10.90
2011,10,15,16,48,10.90
2011,10,15,16,49,10.90
2011,10,15,16,50,10.90
2011,10,15,16,51,10.90
2011,10,15,16,52,10.90
2011,10,15,16,53,10.90
2011,10,15,16,54,10.80
2011,10,15,16,55,10.80
2011,10,15,16,56,10.70
2011,10,15,16,57,10.70
2011,10,15,16,58,10.70
2011,10,15,16,59,10.70
2011,10,15,17,00,10.60
2011,10,15,17,01,10.60
2011,10,15,17,02,10.60
2011,10,15,17,03,10.60
2011,10,15,17,04,10.60
2011,10,15,17,05,10.60
2011,10,15,17,06,10.50
2011,10,15,17,07,10.50
2011,10,15,17,08,10.50
2011,10,15,17,09,10.40
2011,10,15,17,10,10.40
2011,10,15,17,11,10.30
2011,10,15,17,12,10.30
2011,10,15,17,13,10.30
2011,10,15,17,14,10.30
2011,10,15,17,15,10.20
2011,10,15,17,16,10.20
2011,10,15,17,17,10.20
2011,10,15,17,18,10.20
2011,10,15,17,19,10.10
2011,10,15,17,20,10.10
2011,10,15,17,21,10.10
2011,10,15,17,22,10.10
2011,10,15,17,23,10.00
2011,10,15,17,24,10.00
2011,10,15,17,25,10.00
2011,10,15,17,26,9.90
2011,10,15,17,27,9.90
2011,10,15,17,28,9.90
2011,10,15,17,29,9.90
2011,10,15,17,30,9.80
2011,10,15,17,31,9.80
2011,10,15,17,32,9.80
2011,10,15,17,33,9.70
2011,10,15,17,34,9.70
2011,10,15,17,35,9.70
2011,10,15,17,36,9.60
2011,10,15,17,37,9.60
2011,10,15,17,38,9.60
2011,10,15,17,39,9.50
2011,10,15,17,40,9.50
2011,10,15,17,41,9.50
2011,10,15,17,42,9.40
2011,10,15,17,43,9.40
2011,10,15,17,44,9.40
2011,10,15,17,45,9.40
2011,10,15,17,46,9.30
2011,10,15,17,47,9.30
2011,10,15,17,48,9.30
2011,10,15,17,49,9.20
2011,10,15,17,50,9.20
2011,10,15,17,51,9.20
2011,10,15,17,52,9.10
2011,10,15,17,53,9.00
2011,10,15,17,54,9.00
2011,10,15,17,55,8.90
2011,10,15,17,56,8.90
2011,10,15,17,57,8.80
2011,10,15,17,58,8.80
2011,10,15,17,59,8.80
2011,10,15,18,00,8.70
2011,10,15,18,01,8.70
2011,10,15,18,02,8.60
2011,10,15,18,03,8.60
2011,10,15,18,04,8.50
2011,10,15,18,05,8.50
2011,10,15,18,06,8.40
2011,10,15,18,07,8.40
2011,10,15,18,08,8.30
2011,10,15,18,09,8.30
2011,10,15,18,10,8.30
2011,10,15,18,11,8.20
2011,10,15,18,12,8.20
2011,10,15,18,13,8.20
2011,10,15,18,14,8.10
2011,10,15,18,15,8.10
2011,10,15,18,16,8.10
2011,10,15,18,17,8.00
2011,10,15,18,18,7.90
2011,10,15,18,19,7.90
2011,10,15,18,20,7.90
2011,10,15,18,21,7.80
2011,10,15,18,22,7.80
2011,10,15,18,23,7.80
2011,10,15,18,24,7.70
2011,10,15,18,25,7.70
2011,10,15,18,26,7.60
2011,10,15,18,27,7.60
2011,10,15,18,28,7.60
2011,10,15,18,29,7.50
2011,10,15,18,30,7.50
2011,10,15,18,31,7.40
2011,10,15,18,32,7.40
2011,10,15,18,33,7.40
2011,10,15,18,34,7.30
2011,10,15,18,35,7.30
2011,10,15,18,36,7.30
2011,10,15,18,37,7.20
2011,10,15,18,38,7.20
2011,10,15,18,39,7.20
2011,10,15,18,40,7.20
2011,10,15,18,41,7.20
2011,10,15,18,42,7.20
2011,10,15,18,43,7.10
2011,10,15,18,44,7.10
2011,10,15,18,45,7.10
2011,10,15,18,46,7.00
2011,10,15,18,47,7.00
2011,10,15,18,48,6.90
2011,10,15,18,49,6.90
2011,10,15,18,50,6.80
2011,10,15,18,51,6.80
2011,10,15,18,52,6.80
2011,10,15,18,53,6.80
2011,10,15,18,54,6.70
2011,10,15,18,55,6.70
2011,10,15,18,56,6.70
2011,10,15,18,57,6.70
2011,10,15,18,58,6.60
2011,10,15,18,59,6.60
2011,10,15,19,00,6.60
2011,10,15,19,01,6.60
2011,10,15,19,02,6.50
2011,10,15,19,03,6.50
2011,10,15,19,04,6.40
2011,10,15,19,05,6.40
2011,10,15,19,06,6.40
2011,10,15,19,07,6.40
2011,10,15,19,08,6.40
2011,10,15,19,09,6.30
2011,10,15,19,10,6.30
2011,10,15,19,11,6.30
2011,10,15,19,12,6.30
2011,10,15,19,13,6.30
2011,10,15,19,14,6.20
2011,10,15,19,15,6.20
2011,10,15,19,16,6.20
2011,10,15,19,17,6.20
2011,10,15,19,18,6.10
2011,10,15,19,19,6.10
2011,10,15,19,20,6.10
2011,10,15,19,21,6.10
2011,10,15,19,22,6.00
2011,10,15,19,23,6.00
2011,10,15,19,24,6.00
2011,10,15,19,25,5.90
2011,10,15,19,26,5.90
2011,10,15,19,27,5.90
2011,10,15,19,28,5.90
2011,10,15,19,29,5.80
2011,10,15,19,30,5.80
2011,10,15,19,31,5.80
2011,10,15,19,32,5.80
2011,10,15,19,33,5.80
2011,10,15,19,34,5.70
2011,10,15,19,35,5.70
2011,10,15,19,36,5.70
2011,10,15,19,37,5.70
2011,10,15,19,38,5.70
2011,10,15,19,39,5.70
2011,10,15,19,40,5.70
2011,10,15,19,41,5.60
2011,10,15,19,42,5.60
2011,10,15,19,43,5.60
2011,10,15,19,44,5.60
2011,10,15,19,45,5.60
2011,10,15,19,46,5.50
2011,10,15,19,47,5.50
2011,10,15,19,48,5.50
2011,10,15,19,49,5.40
2011,10,15,19,50,5.40
2011,10,15,19,51,5.40
2011,10,15,19,52,5.40
2011,10,15,19,53,5.40
2011,10,15,19,54,5.40
2011,10,15,19,55,5.40
2011,10,15,19,56,5.40
2011,10,15,19,57,5.40
2011,10,15,19,58,5.40
2011,10,15,19,59,5.30
2011,10,15,20,00,5.30
2011,10,15,20,01,5.30
2011,10,15,20,02,5.30
2011,10,15,20,03,5.30
2011,10,15,20,04,5.30
2011,10,15,20,05,5.30
2011,10,15,20,06,5.30
2011,10,15,20,07,5.30
2011,10,15,20,08,5.30
2011,10,15,20,09,5.20
2011,10,15,20,10,5.20
2011,10,15,20,11,5.20
2011,10,15,20,12,5.20
2011,10,15,20,13,5.20
2011,10,15,20,14,5.20
2011,10,15,20,15,5.20
2011,10,15,20,16,5.20
2011,10,15,20,17,5.20
2011,10,15,20,18,5.10
2011,10,15,20,19,5.10
2011,10,15,20,20,5.10
2011,10,15,20,21,5.10
2011,10,15,20,22,5.10
2011,10,15,20,23,5.10
2011,10,15,20,24,5.10
2011,10,15,20,25,5.10
2011,10,15,20,26,5.10
2011,10,15,20,27,5.10
2011,10,15,20,28,5.10
2011,10,15,20,29,5.10
2011,10,15,20,30,5.10
2011,10,15,20,31,5.10
2011,10,15,20,32,5.10
2011,10,15,20,33,5.10
2011,10,15,20,34,5.10
2011,10,15,20,35,5.10
2011,10,15,20,36,5.10
2011,10,15,20,37,5.10
2011,10,15,20,38,5.10
2011,10,15,20,39,5.00
2011,10,15,20,40,5.00
2011,10,15,20,41,5.00
2011,10,15,20,42,5.00
2011,10,15,20,43,4.90
2011,10,15,20,44,4.90
2011,10,15,20,45,4.90
2011,10,15,20,46,4.90
2011,10,15,20,47,4.90
2011,10,15,20,48,4.90
2011,10,15,20,49,4.90
2011,10,15,20,50,4.90
2011,10,15,20,51,4.90
2011,10,15,20,52,4.80
2011,10,15,20,53,4.80
2011,10,15,20,54,4.80
2011,10,15,20,55,4.80
2011,10,15,20,56,4.80
2011,10,15,20,57,4.80
2011,10,15,20,58,4.80
2011,10,15,20,59,4.80
2011,10,15,21,00,4.80
2011,10,15,21,01,4.80
2011,10,15,21,02,4.80
2011,10,15,21,03,4.80
2011,10,15,21,04,4.80
2011,10,15,21,05,4.80
2011,10,15,21,06,4.80
2011,10,15,21,07,4.80
2011,10,15,21,08,4.80
2011,10,15,21,09,4.80
2011,10,15,21,10,4.80
2011,10,15,21,11,4.70
2011,10,15,21,12,4.70
2011,10,15,21,13,4.70
2011,10,15,21,14,4.70
2011,10,15,21,15,4.70
2011,10,15,21,16,4.70
2011,10,15,21,17,4.70
2011,10,15,21,18,4.70
2011,10,15,21,19,4.70
2011,10,15,21,20,4.70
2011,10,15,21,21,4.70
2011,10,15,21,22,4.70
2011,10,15,21,23,4.70
2011,10,15,21,24,4.60
2011,10,15,21,25,4.60
2011,10,15,21,26,4.60
2011,10,15,21,27,4.60
2011,10,15,21,28,4.60
2011,10,15,21,29,4.60
2011,10,15,21,30,4.60
2011,10,15,21,31,4.60
2011,10,15,21,32,4.60
2011,10,15,21,33,4.60
2011,10,15,21,34,4.60
2011,10,15,21,35,4.60
2011,10,15,21,36,4.60
2011,10,15,21,37,4.60
2011,10,15,21,38,4.60
2011,10,15,21,39,4.50
2011,10,15,21,40,4.50
2011,10,15,21,41,4.50
2011,10,15,21,42,4.40
2011,10,15,21,43,4.40
2011,10,15,21,44,4.40
2011,10,15,21,45,4.40
2011,10,15,21,46,4.40
2011,10,15,21,47,4.40
2011,10,15,21,48,4.40
2011,10,15,21,49,4.40
2011,10,15,21,50,4.30
2011,10,15,21,51,4.30
2011,10,15,21,52,4.30